JP7FSO Weather Reports


time (UTC)temp
C
wind
direction
speed
KPH
gust
KPH
rain 1hr
cm
rain 24hr
cm
rain mn
cm
humidity
%
barometer
mb
20260510063011 27 180 0.0 0.0 0.00 0.00 0.00 18 1009.8
20260510061505 27 289 0.0 0.0 0.00 0.00 0.00 17 1009.9
20260510054505 26 155 1.6 0.0 0.00 0.00 0.00 18 1010.0
20260510053004 26 266 1.6 0.0 0.00 0.00 0.00 21 1010.1
20260510051505 25 269 0.0 0.0 0.00 0.00 0.00 22 1010.1
20260510044528 25 128 1.6 0.0 0.00 0.00 0.00 20 1010.5
20260510043022 26 125 3.2 0.0 0.00 0.00 0.00 18 1010.5
20260510040030 27 160 1.6 0.0 0.00 0.00 0.00 17 1010.7
20260510034509 26 248 1.6 0.0 0.00 0.00 0.00 17 1010.9
20260510031502 25 288 3.2 0.0 0.00 0.00 0.00 18 1011.0
20260510030006 25 236 3.2 0.0 0.00 0.00 0.00 18 1011.3
20260510024508 25 305 3.2 0.0 0.00 0.00 0.00 18 1011.5
20260510023028 23 298 3.2 0.0 0.00 0.00 0.00 19 1011.6
20260510021511 23 0 1.6 0.0 0.00 0.00 0.00 24 1011.7
20260510020008 22 263 1.6 0.0 0.00 0.00 0.00 24 1011.9
20260510014525 22 271 3.2 0.0 0.00 0.00 0.00 26 1012.0
20260510013004 21 101 3.2 0.0 0.00 0.00 0.00 28 1012.2
20260510011559 22 301 3.2 0.0 0.00 0.00 0.00 25 1012.3
20260510004523 21 258 1.6 0.0 0.00 0.00 0.00 28 1012.8
20260510003033 20 125 1.6 0.0 0.00 0.00 0.00 28 1012.8
20260510001604 20 116 1.6 0.0 0.00 0.00 0.00 27 1012.9
20260510000025 20 152 0.0 0.0 0.00 0.00 0.00 29 1013.0
20260509234616 19 248 0.0 0.0 0.00 0.00 0.00 36 1013.1
20260509233056 18 120 1.6 0.0 0.00 0.00 0.00 34 1013.2
20260509230012 16 295 0.0 0.0 0.00 0.00 0.00 47 1013.1
20260509224555 15 297 0.0 0.0 0.00 0.00 0.00 54 1013.0
20260509223029 13 286 0.0 0.0 0.00 0.00 0.00 56 1013.0
20260509221515 12 191 0.0 0.0 0.00 0.00 0.00 62 1013.0
20260509220100 12 134 0.0 0.0 0.00 0.00 0.00 64 1013.0
20260509214508 11 110 0.0 0.0 0.00 0.00 0.00 68 1012.9
20260509213104 10 260 0.0 0.0 0.00 0.00 0.00 68 1012.8
20260509211507 9 279 0.0 0.0 0.00 0.00 0.00 69 1012.6
20260509210007 8 99 0.0 0.0 0.00 0.00 0.00 70 1012.4
20260509204504 8 282 1.6 0.0 0.00 0.00 0.00 70 1012.2
20260509203012 8 320 0.0 0.0 0.00 0.00 0.00 69 1011.9
20260509201508 8 300 0.0 0.0 0.00 0.00 0.00 68 1011.7
20260509200008 8 305 0.0 0.0 0.00 0.00 0.00 67 1011.3
20260509193109 8 315 0.0 0.0 0.00 0.00 0.00 66 1010.7
20260509191504 9 293 0.0 0.0 0.00 0.00 0.00 66 1010.6
20260509190023 9 288 0.0 0.0 0.00 0.00 0.00 65 1010.6
20260509184509 9 291 0.0 0.0 0.00 0.00 0.00 64 1010.4
20260509183028 10 297 0.0 0.0 0.00 0.00 0.00 63 1010.2
20260509181512 10 298 0.0 0.0 0.00 0.00 0.00 62 1010.1
20260509180019 10 281 0.0 0.0 0.00 0.00 0.00 61 1010.0
20260509174508 10 278 0.0 0.0 0.00 0.00 0.00 60 1009.8
20260509173015 10 296 0.0 0.0 0.00 0.00 0.00 59 1009.6
20260509171511 11 320 0.0 0.0 0.00 0.00 0.00 59 1009.6
20260509170027 11 85 0.0 0.0 0.00 0.00 0.00 57 1009.5
20260509164514 12 119 0.0 0.0 0.00 0.00 0.00 55 1009.3
20260509163018 12 243 0.0 0.0 0.00 0.00 0.00 52 1009.0
20260509161512 13 297 3.2 0.0 0.00 0.00 0.00 49 1009.0
20260509160059 13 298 1.6 0.0 0.00 0.00 0.00 47 1008.9
20260509154520 13 276 1.6 0.0 0.00 0.00 0.00 46 1008.7
20260509153010 13 270 1.6 0.0 0.00 0.00 0.00 47 1008.6
20260509151511 13 251 0.0 0.0 0.00 0.00 0.00 47 1008.5
20260509150009 13 269 0.0 0.0 0.00 0.00 0.00 49 1008.5
20260509140008 13 251 0.0 0.0 0.00 0.00 0.00 46 1008.0
20260509134507 13 347 0.0 0.0 0.00 0.00 0.00 47 1008.0
20260509133012 13 266 0.0 0.0 0.00 0.00 0.00 46 1007.9
20260509131509 13 292 0.0 0.0 0.00 0.00 0.00 47 1007.7
20260509130011 14 262 0.0 0.0 0.00 0.00 0.00 47 1007.5
20260509124518 14 285 0.0 0.0 0.00 0.00 0.00 46 1007.4
20260509123106 14 283 0.0 0.0 0.00 0.00 0.00 45 1007.1
20260509121523 14 296 1.6 0.0 0.00 0.00 0.00 45 1007.0
20260509120023 14 277 1.6 0.0 0.00 0.00 0.00 45 1006.9
20260509113008 15 305 3.2 0.0 0.00 0.00 0.00 44 1006.4
20260509111601 15 290 3.2 0.0 0.00 0.00 0.00 44 1006.3
20260509110105 15 352 3.2 0.0 0.00 0.00 0.00 42 1006.3
20260509104557 15 273 4.8 0.0 0.00 0.00 0.00 40 1006.5
20260509103005 15 262 1.6 0.0 0.00 0.00 0.00 40 1006.1
20260509101515 15 285 0.0 0.0 0.00 0.00 0.00 38 1005.9
20260509100005 16 261 1.6 0.0 0.00 0.00 0.00 36 1005.4
20260509094505 16 262 1.6 0.0 0.00 0.00 0.00 34 1005.4
20260509093033 16 282 3.2 0.0 0.00 0.00 0.00 35 1005.2
20260509091526 16 114 3.2 0.0 0.00 0.00 0.00 34 1005.2
20260509090032 17 295 3.2 0.0 0.00 0.00 0.00 30 1004.8
20260509084522 17 301 6.4 0.0 0.00 0.00 0.00 29 1004.8
20260509083115 17 297 6.4 0.0 0.00 0.00 0.00 28 1003.9
20260509081537 18 340 3.2 0.0 0.00 0.00 0.00 27 1003.8
20260509074536 19 268 4.8 0.0 0.00 0.00 0.00 26 1003.4
20260509073101 19 262 4.8 0.0 0.00 0.00 0.00 26 1003.3
20260509071516 20 253 6.4 0.0 0.00 0.00 0.00 25 1003.2
20260509070024 20 301 4.8 0.0 0.00 0.00 0.00 25 1003.2
20260509064614 20 197 3.2 0.0 0.00 0.00 0.00 24 1002.8